CDT,Max TemperatureF,Mean TemperatureF,Min TemperatureF,Max Dew PointF,MeanDew PointF,Min DewpointF,Max Humidity, Mean Humidity, Min Humidity, Max Sea Level PressureIn, Mean Sea Level PressureIn, Min Sea Level PressureIn, Max VisibilityMiles, Mean VisibilityMiles, Min VisibilityMiles, Max Wind SpeedMPH, Mean Wind SpeedMPH, Max Gust SpeedMPH,PrecipitationIn, CloudCover, Events, WindDirDegrees
2012-3-1,63,51,39,37,34,31,81,50,30,29.95,29.86,29.72,10,10,10,13,8,,0.00,0,,242
2012-3-2,75,56,36,64,48,32,90,71,50,29.84,29.56,29.31,10,9,0,44,14,63,0.11,3,Rain-Thunderstorm,227
2012-3-3,50,41,31,34,29,25,93,66,38,29.96,29.91,29.85,10,10,10,17,9,25,0.00,1,,278
2012-3-4,48,39,30,37,30,21,100,74,33,29.98,29.94,29.89,10,10,5,17,7,28,0.00,3,Rain,288
2012-3-5,43,36,30,38,26,20,93,67,45,30.48,30.33,29.95,10,10,10,24,14,,0.00,3,Rain,319
2012-3-6,70,52,34,33,28,24,65,43,24,30.40,30.28,30.20,10,10,10,18,13,25,0.00,0,,176
2012-3-7,70,60,50,51,43,30,63,51,39,30.30,30.21,30.10,10,10,10,28,18,36,0.00,3,,182
2012-3-8,64,52,37,57,48,31,100,86,59,30.38,30.15,30.03,10,5,1,24,14,34,0.34,6,Rain,302
2012-3-9,54,43,32,35,26,18,89,53,27,30.52,30.47,30.40,10,10,10,20,7,28,0.00,0,,342
2012-3-10,61,47,33,28,25,21,65,45,26,30.55,30.44,30.33,10,10,10,10,6,,0.00,0,,106
2012-3-11,66,52,39,55,40,29,86,57,34,30.38,30.27,30.12,10,10,5,15,7,22,0.00,2,Rain,159
2012-3-12,72,66,59,64,60,54,94,85,73,30.12,30.05,29.97,10,9,2,21,15,29,0.01,6,Rain,185
2012-3-13,79,68,56,65,59,55,100,77,43,30.14,30.10,30.05,10,9,4,12,7,,0.00,1,,218
2012-3-14,82,68,54,68,60,52,96,74,49,30.19,30.13,30.07,10,10,10,14,6,,0.00,1,,179
2012-3-15,79,69,59,79,62,55,100,86,60,30.19,30.13,30.08,10,9,1,33,10,55,0.55,3,Rain-Thunderstorm,209
2012-3-16,71,64,57,62,60,58,100,89,64,30.15,30.12,30.08,10,10,7,14,8,,0.01,4,Rain,169
2012-3-17,77,66,54,64,58,55,100,91,62,30.16,30.12,30.06,10,5,0,10,2,,0.00,4,Fog-Rain-Thunderstorm,184
2012-3-18,81,70,59,65,62,59,100,79,54,30.17,30.10,30.05,10,10,6,14,8,,0.00,2,,183
2012-3-19,81,71,61,63,56,52,84,60,39,30.12,30.05,29.99,10,10,10,20,8,,0.00,0,,162
2012-3-20,82,72,63,60,57,55,73,58,44,30.10,30.03,29.97,10,10,9,16,9,23,0.00,0,,153
2012-3-21,82,72,63,60,56,52,70,55,34,30.13,30.06,30.02,10,10,10,21,9,23,0.00,0,Rain,152
2012-3-22,73,68,64,62,58,55,87,70,57,30.13,30.06,30.02,10,10,10,16,9,,0.00,5,,156
2012-3-23,77,66,52,64,56,43,100,73,42,30.01,29.90,29.77,10,10,7,16,10,23,0.00,5,Rain-Thunderstorm,198
2012-3-24,63,56,48,51,47,44,97,75,50,29.91,29.87,29.84,10,10,10,13,6,,0.00,4,Rain,240
2012-3-25,68,60,52,58,54,52,100,82,55,30.06,29.98,29.91,10,8,3,10,5,,0.00,6,Rain,341
2012-3-26,72,60,48,57,45,38,100,56,34,30.20,30.14,30.05,10,8,3,13,5,,0.00,1,,39
2012-3-27,79,62,45,52,41,31,70,49,29,30.24,30.13,30.01,10,10,10,13,10,,0.00,0,,149
2012-3-28,81,69,57,62,57,51,84,66,49,30.01,29.98,29.94,10,10,10,14,7,21,0.00,2,Rain,248
2012-3-29,77,67,57,60,49,44,87,54,34,30.03,29.96,29.89,10,10,8,10,5,,0.00,2,,79
2012-3-30,82,69,56,62,57,49,94,69,42,29.88,29.83,29.74,10,8,1,29,9,37,0.69,3,Rain-Thunderstorm,210
2012-3-31,72,64,57,61,57,54,100,82,55,29.90,29.86,29.80,10,7,2,13,6,,0.00,4,Rain-Thunderstorm,19